Location: Tarleton Observatory
(32.2162°N, 98.0976°W)
Time: 21:13:26
(UTC-05:00)

Daily predictions for brighter satellites

Satellite Brightness Start Highest point End
(mag) Time Altitude Azimuth Time Altitude Azimuth Time Altitude Azimuth
Cosmos 2344 3.7 20:00:28 10° SSW 20:08:06 63° ESE 20:15:59 10° NE
METEOR-M 4.1 20:07:52 10° SSE 20:13:11 81° ENE 20:18:32 10° N
ATLAS CENTAUR R/B 4.1 20:11:28 10° WNW 20:13:39 15° WSW 20:15:48 10° SSW
Yuri Rocket 3.4 20:11:04 10° WSW 20:15:16 48° S 20:19:17 10° E
Helios 1B rocket 4.0 20:16:11 10° ENE 20:18:37 15° E 20:21:02 10° SE
Cosmos 1437 Rocket 2.8 20:14:55 10° S 20:18:49 59° E 20:22:47 10° NNE
SJ-6B 2.7 20:16:20 10° SSE 20:20:01 58° ENE 20:23:41 10° N
Lacrosse 4 Rocket 1.9 20:19:03 10° SW 20:23:03 61° WNW 20:27:05 10° NNE
SWIFT 4.4 20:29:02 10° SW 20:31:47 17° S 20:34:32 10° SE
Spot 2 Rocket 3.8 20:32:33 10° SE 20:37:22 45° ENE 20:42:12 10° N
Cosmos 1844 Rocket 3.6 20:32:30 10° SW 20:37:59 52° WNW 20:43:31 10° N
Delta 2 Rocket 4.5 20:31:17 10° W 20:38:03 51° S 20:42:52 16° ESE
Cosmos 2150 Rocket 4.3 20:34:08 10° SSW 20:39:15 69° WNW 20:44:23 10° N
Cosmos 1758 4.5 20:36:43 10° SE 20:39:47 22° E 20:42:52 10° NE
GPS 2-05 Rocket1 4.1 20:37:07 10° SSW 20:40:12 27° SSE 20:41:40 20° ESE
Cosmos 192 4.3 20:35:25 10° NNW 20:40:21 90° WNW 20:45:16 10° SSE
FengYun 1-2 T 4.2 20:41:28 10° SSE 20:47:00 81° ENE 20:52:37 10° N
Cosmos 2278 Rocket 2.1 20:41:41 10° SSW 20:47:19 72° ESE 20:52:59 10° NNE
Tiangong 1 3.1 20:45:52 10° NNW 20:47:45 16° NNE 20:48:47 13° NE
USA 215 3.2 20:41:19 10° NE 20:47:50 69° SE 20:54:19 10° SSW
CZ-3 Stage 3 4.3 19:38:14 10° WSW 20:47:51 83° S 20:54:42 19° E
Cosmos 1953 3.2 20:46:48 11° SSE 20:50:02 27° E 20:53:30 10° NNE
Cosmos 1378 3.0 20:46:23 10° N 20:50:09 86° E 20:53:53 10° S
Cosmos 990 Rocket 4.3 20:47:43 10° SSW 20:52:56 69° WNW 20:58:10 10° N
Cosmos 1934 Rocket 4.0 20:47:40 10° S 20:53:51 87° W 20:59:59 10° N
H-2A R/B 2.6 20:51:21 10° SSE 20:55:11 78° ENE 20:59:06 10° N
Envisat 4.1 20:54:30 22° E 20:55:24 23° ENE 20:59:21 10° NNE
FENGYUN 3A 3.9 20:51:54 10° S 20:57:17 74° WSW 21:02:42 10° NNW
Okean 3 Rocket 4.1 20:53:44 10° NNE 20:57:49 37° E 20:59:29 27° SE
Cosmos 2297 4.1 20:54:31 10° S 20:59:43 38° ESE 21:04:57 10° NE
Cosmos 1125 Rocket 3.8 20:55:49 10° S 21:00:38 41° ESE 21:05:30 10° NNE
Meteor 1-24 Rocket 3.7 21:01:50 10° N 21:07:22 84° W 21:13:04 10° S
ATLAS 5 CENTAUR R/B 3.7 21:07:50 10° SSE 21:08:20 12° SSE 21:08:20 12° SSE
BREEZE-M DEB (TANK) 4.5 21:09:19 10° W 21:11:51 31° NNW 21:17:13 10° NE
Meteor 1-4 Rocket 3.8 21:14:46 26° NNE 21:14:46 26° NNE 21:16:28 10° NNE
ALOS 3.6 21:08:55 10° S 21:13:19 41° W 21:17:43 10° NNW
GP-B 3.4 21:14:49 42° E 21:14:54 43° E 21:19:06 10° NNE
Cosmos 1544 2.9 21:11:19 10° S 21:14:56 83° E 21:18:36 10° N
Resurs 01 Rocket 2.1 21:11:37 10° S 21:15:57 60° W 21:20:19 10° NNW
Aurora 2 Rocket 4.1 21:14:23 10° SW 21:19:17 25° S 21:19:49 24° SSE
RESURS DK-1 2.2 21:17:35 10° NNW 21:21:43 69° ENE 21:22:06 64° ESE
Cosmos 2082 Rocket 3.4 21:17:30 10° N 21:21:38 24° NE 21:21:38 24° NE
SL-27 R/B 2.5 21:20:13 10° NNW 21:23:48 77° WSW 21:24:14 64° SSW
Meteor 1-29 3.3 21:23:31 10° N 21:26:20 56° N 21:26:20 56° N
Lacrosse 5 3.5 21:26:09 10° WSW 21:30:41 32° NW 21:35:14 10° NNE
Timation 1 Rocket 4.3 21:24:44 10° SSW 21:30:44 86° WNW 21:36:47 10° NNE
Cosmos 2100 Rocket 4.1 21:28:37 35° SE 21:30:56 51° E 21:37:02 10° NNE
Cosmos 1605 Rocket 4.5 21:25:36 10° SSW 21:31:43 62° W 21:37:59 10° N
SeaSat 1 4.3 21:30:28 10° SSW 21:34:37 27° WSW 21:38:48 10° NW
Delta 2 Rocket 3.4 21:32:59 10° WNW 21:37:14 71° NNW 21:37:14 71° NNW
Cosmos 1076 Rocket 3.9 21:33:24 10° N 21:36:38 49° NNE 21:36:38 49° NNE
Cosmos 2098 Rocket 4.3 21:32:06 10° S 21:38:49 84° W 21:46:26 10° N
Spot 1 4.4 21:38:33 44° S 21:39:55 71° WSW 21:44:39 10° NNW
Delta 128 4.4 21:40:23 10° WSW 21:43:41 39° SSW 21:43:41 39° SSW
Meteor 1-21 Rocket 4.1 21:41:39 10° N 21:47:30 79° E 21:48:20 65° SE
Cosmos 1802 Rocket 4.4 21:49:52 44° NE 21:49:52 44° NE 21:54:22 10° NNE
Cosmos 468 4.4 21:45:53 10° NNW 21:50:47 76° NNE 21:50:47 76° NNE
Helios 1A 3.8 21:50:45 45° WSW 21:51:11 48° W 21:55:13 10° NNW
Helios 1B rocket 4.2 21:50:17 10° N 21:53:57 31° WNW 21:57:35 10° SW
Cosmos 2061 Rocket 3.9 21:56:15 72° ESE 21:56:24 72° E 22:02:48 10° N
Cosmos 1867 3.9 21:51:08 10° SW 21:56:31 65° WNW 22:01:58 10° NNE
Cosmos 1833 Rocket 4.0 22:31:15 10° NNW 22:34:24 35° NNW 22:34:24 35° NNW
Cosmos 2082 Rocket 4.2 23:01:01 10° NW 23:03:31 24° NW 23:03:31 24° NW
